This is the latest recevied weather packets stored in our database for station/object XE2OR-10. If no packets are shown the sender has not sent any weather packets the latest 1 day(s).
| Time | Temp. | Humidity | Pressure | Rain* | Wind** | Luminosity | Snow |
|---|---|---|---|---|---|---|---|
| 1778033929 | 31.11° C | 67% | 1009.7 hPa | 0 mm | - | 0 W/m² | - |
| 1778033632 | 31.11° C | 67% | 1009.7 hPa | 0 mm | - | 0 W/m² | - |
| 1778033329 | 31.11° C | 66% | 1009.7 hPa | 0 mm | - | 0 W/m² | - |
| 1778033029 | 31.11° C | 66% | 1009.4 hPa | 0 mm | - | 0 W/m² | - |
| 1778032729 | 31.11° C | 65% | 1009.3 hPa | 0 mm | - | 0 W/m² | - |
| 1778032432 | 31.67° C | 65% | 1009.3 hPa | 0 mm | - | 0 W/m² | - |
| 1778032128 | 31.67° C | 64% | 1009.3 hPa | 0 mm | - | 0 W/m² | - |
| 1778031832 | 31.67° C | 64% | 1009.4 hPa | 0 mm | - | 0 W/m² | - |
| 1778031529 | 31.67° C | 64% | 1009.3 hPa | 0 mm | - | 0 W/m² | - |
| 1778031229 | 31.67° C | 63% | 1009.2 hPa | 0 mm | - | 0 W/m² | - |
| 1778030929 | 32.22° C | 63% | 1009 hPa | 0 mm | - | 0 W/m² | - |
| 1778030632 | 32.22° C | 63% | 1008.9 hPa | 0 mm | - | 0 W/m² | - |
| 1778030329 | 32.22° C | 62% | 1008.8 hPa | 0 mm | - | 2 W/m² | - |
| 1778030032 | 32.22° C | 62% | 1008.9 hPa | 0 mm | - | 4 W/m² | - |
| 1778029729 | 32.22° C | 62% | 1008.7 hPa | 0 mm | - | 9 W/m² | - |
| 1778029428 | 32.78° C | 61% | 1008.8 hPa | 0 mm | - | 13 W/m² | - |
| 1778029129 | 32.78° C | 61% | 1008.8 hPa | 0 mm | - | 21 W/m² | - |
| 1778028832 | 33.33° C | 59% | 1008.9 hPa | 0 mm | - | 35 W/m² | - |
| 1778028529 | 33.33° C | 60% | 1009 hPa | 0 mm | - | 43 W/m² | - |
| 1778028233 | 33.33° C | 59% | 1009 hPa | 0 mm | - | 45 W/m² | - |
| 1778027929 | 33.33° C | 59% | 1008.9 hPa | 0 mm | - | 55 W/m² | - |
| 1778027629 | 33.33° C | 60% | 1008.7 hPa | 0 mm | - | 54 W/m² | - |
| 1778027032 | 33.33° C | 59% | 1008.9 hPa | 0 mm | - | 49 W/m² | - |
| 1778026729 | 33.33° C | 59% | 1008.9 hPa | 0 mm | - | 46 W/m² | - |
| 1778026432 | 33.33° C | 58% | 1008.8 hPa | 0 mm | - | 54 W/m² | - |
* Rain latest hour (hover to see other rain measurements)
** Current wind speed in m/s (hover to see current wind gust speed)